Regional Weather Roundup
Issued by NWS

Home | Current Version | Previous Version | Graphics & Text | Print | Product List | Glossary On
Versions: 1 2 3 4 5 6 7 8 9 10 11 12 13 14 15 16 17 18 19 20 21 22 23 24 25 26 27 28 29 30 31 32 33 34 35 36 37 38 39 40 41 42 43 44 45 46 47 48 49 50
000
ASUS43 KLMK 290610
RWRKY
KENTUCKY REGIONAL WEATHER ROUNDUP
NATIONAL WEATHER SERVICE LOUISVILLE KY
100 AM EST MON DEC 29 2014

NOTE "FAIR" INDICATES FEW OR NO CLOUDS BELOW 12,000 FEET
WITH NO SIGNIFICANT WEATHER AND/OR OBSTRUCTIONS TO VISIBILITY.

KYZ001>023-026-027-061>063-070>075-290700-
WESTERN AND SOUTH CENTRAL KENTUCKY

CITY           SKY/WX    TMP DP  RH WIND       PRES   REMARKS
PADUCAH        CLOUDY    33  27  78 NE6       30.21S WCI  28
HENDERSON      CLOUDY    34  27  75 NE9       30.23R WCI  26
OWENSBORO      CLOUDY    34  30  85 N3        30.23R
HOPKINSVILLE   CLOUDY    34  32  93 NW5       30.20R WCI  30
BOWLING GREEN  CLOUDY    37  33  85 N3        30.18S
GLASGOW        CLOUDY    35  34  96 N5        30.17R WCI  31
$$

KYZ024-025-028>034-038-045-046-053-290700-
NORTH CENTRAL KENTUCKY

CITY           SKY/WX    TMP DP  RH WIND       PRES   REMARKS
LOUISVILLE/SDF CLOUDY    35  29  78 N7        30.21R WCI  29
LOUISVILLE/LOU CLOUDY    34  29  82 N6        30.21S WCI  29
FORT KNOX      CLOUDY    34  29  85 N3        30.18S
$$

KYZ035>037-039>044-047>052-055>060-089>105-290700-
NORTHEAST KENTUCKY

CITY           SKY/WX    TMP DP  RH WIND       PRES   REMARKS
LEXINGTON      CLOUDY    32  30  92 N5        30.18S WCI  27
COVINGTON      CLOUDY    32  26  78 N9        30.19F WCI  24
FRANKFORT      CLOUDY    33  29  85 N5        30.18S WCI  29
$$

KYZ054-064>069-076>088-106>120-290700-
SOUTHEAST KENTUCKY

CITY           SKY/WX    TMP DP  RH WIND       PRES   REMARKS
JACKSON        FOG       36  35  96 NE3       30.13S VSB 1/4
LONDON         CLOUDY    38  34  85 NE7       30.12F WCI  33
SOMERSET       CLOUDY    36  36 100 N5        30.16S WCI  32
MIDDLESBORO    DRIZZLE   43  43 100 CALM      30.09F
MONTICELLO     LGT RAIN  39  38  97 N8        30.18S WCI  33
$$



USA.gov is the U.S. government's official web portal to all federal, state and local government web resources and services.